[[{"header":{"parameterUnit":"m.s-1","parameterCategory":1,"la1":30.2991,"la2":30.254,"lo1":-89.0895,"lo2":-89.0444,"dy":0.0017,"dx":0.0017,"nx":28,"ny":28,"refTime":"2025-11-05T03:00:00:Z","depth":0,"parameterNumber":2,"parameterNumberName":"U-component_of_WINDS"},"data":[0,0,0,0,0,0,0,0,0,0,0,0,0,0,0,0,0,0,0,0,0,0,0,0,0,0,0,0,0,0,0,0,0,0,0,0,0,0,0,0,0,0,0,0,0,0,0,0,0,0,0,0,0,0,0,0,0,0,-1.6245,-1.6245,0,-1.6295,-1.6296,-1.6296,-1.6251,-1.6249,-1.6247,-1.6245,-1.6297,-1.6299,-1.6303,0,0,0,0,0,0,0,0,0,0,0,0,0,-1.611,-1.6112,-1.6245,-1.6245,-1.6246,-1.6295,-1.6296,-1.6296,-1.6251,-1.6249,-1.6247,-1.6244,-1.6295,-1.6299,-1.6303,0,0,0,0,0,0,0,0,0,0,0,0,0,-1.6165,-1.6113,-1.6245,-1.6229,-1.6228,-1.6295,-1.6296,-1.6296,-1.6252,-1.6249,-1.6246,-1.6243,-1.6294,-1.6299,-1.6303,-1.6387,0,0,-1.6317,-1.6319,0,0,0,0,0,0,0,0,-1.6162,-1.617,-1.6231,-1.623,-1.623,-1.6264,-1.6267,-1.6327,-1.6252,-1.6243,-1.6245,-1.6242,-1.6288,-1.6293,-1.6308,-1.639,-1.6392,-1.6318,-1.6321,-1.6323,-1.6324,0,0,0,0,0,0,0,-1.6158,-1.6168,-1.6264,-1.6232,-1.6231,-1.622,-1.6225,-1.6278,-1.628,-1.6243,-1.624,-1.6247,-1.6287,-1.6304,-1.6309,-1.6393,-1.6318,-1.6322,-1.6325,-1.6327,-1.6547,-1.655,0,0,0,0,0,0,-1.6156,-1.6165,-1.6263,-1.6266,-1.6188,-1.6225,-1.623,-1.6256,-1.6279,-1.628,-1.6249,-1.6244,-1.6297,-1.6304,-1.6311,-1.6412,-1.6323,-1.6327,-1.633,-1.6544,-1.6548,-1.6551,0,0,0,0,0,0,-1.6153,-1.6165,-1.6261,-1.6215,-1.6226,-1.623,-1.6259,-1.6258,-1.6275,-1.6284,-1.6284,-1.6266,-1.6295,-1.6304,-1.6369,-1.6413,-1.6329,-1.6333,-1.654,-1.6545,-1.6549,-1.6615,0,0,0,0,0,0,-1.615,-1.6164,-1.6196,-1.6216,-1.6229,-1.6318,-1.6262,-1.6261,-1.6283,-1.6278,-1.63,-1.6301,-1.6294,-1.6362,-1.6374,-1.6418,-1.6337,-1.6536,-1.6542,-1.6548,-1.6609,-1.6621,-1.6632,0,0,0,0,0,-1.6145,-1.6212,-1.6198,-1.621,-1.6268,-1.6321,-1.6328,-1.6319,-1.6287,-1.6319,-1.6325,-1.63,-1.6406,-1.6369,-1.6382,-1.6428,-1.6534,-1.6541,-1.6547,-1.6604,-1.6619,-1.6631,0,0,0,0,0,0,-1.6198,-1.6214,-1.6199,-1.6275,-1.6297,-1.6313,-1.6354,-1.6335,-1.6367,-1.6361,-1.6348,-1.6353,-1.6422,-1.6431,-1.639,-1.6511,-1.6465,-1.6474,-1.6503,-1.6518,-1.6529,-1.6526,-1.6341,0,0,0,0,0,-1.6218,-1.6259,-1.6272,-1.6337,-1.6349,-1.635,-1.6372,-1.6363,-1.6386,-1.6395,-1.6405,-1.6428,-1.6467,-1.6492,-1.6528,-1.6609,-1.6614,-1.6647,-1.6659,-1.6668,-1.6677,-1.6723,-1.6738,-1.6574,-1.6574,-1.6574,0,0,-1.6261,-1.6275,-1.6302,-1.6348,-1.6364,-1.6408,-1.6358,-1.6406,-1.6438,-1.6402,-1.6464,-1.6473,-1.6497,-1.6571,-1.6604,-1.6581,-1.6724,-1.6677,-1.6684,-1.6688,-1.6731,-1.6747,-1.6761,-1.6579,-1.6578,-1.6577,0,0,-1.6361,-1.6375,-1.6432,-1.645,-1.6475,-1.6475,-1.6489,-1.6509,-1.6513,-1.6575,-1.655,-1.6588,-1.6654,-1.6673,-1.6692,-1.68,-1.6779,-1.6812,-1.6872,-1.6917,-1.693,-1.6941,-1.6982,-1.6996,-1.6821,-1.6821,-1.6821,0,-1.6411,-1.6475,-1.6464,-1.6514,-1.6536,-1.6506,-1.6564,-1.6581,-1.6617,-1.6633,-1.6606,-1.669,-1.6704,-1.6783,-1.6809,-1.6825,-1.6841,-1.681,-1.6929,-1.694,-1.6951,-1.6989,-1.7004,-1.6825,-1.6824,-1.6824,-1.6824,0,-1.6536,-1.6582,-1.6625,-1.6661,-1.6687,-1.6741,-1.6738,-1.6766,-1.6755,-1.6758,-1.6822,-1.6838,-1.6878,-1.6895,-1.6885,-1.6973,-1.6958,-1.6931,-1.6884,-1.697,-1.7006,-1.7021,-1.683,-1.6829,-1.6828,-1.6827,0,0,-1.6672,-1.6701,-1.6718,-1.6734,-1.676,-1.6795,-1.6848,-1.6887,-1.6912,-1.6937,-1.6982,-1.7039,-1.7014,-1.7035,-1.7026,-1.7065,-1.7152,-1.7032,-1.7033,-1.7056,-1.7253,-1.7275,-1.7292,-1.7138,-1.714,-1.7142,-1.7251,0,-1.6775,-1.6867,-1.6858,-1.6946,-1.6989,-1.6961,-1.7007,-1.7028,-1.7032,-1.7069,-1.7073,-1.7115,-1.7077,-1.709,-1.7127,-1.7134,-1.7192,-1.7125,-1.718,-1.7182,-1.7177,-1.731,-1.7333,-1.7435,-1.7265,-1.7267,-1.7269,0,-1.6907,-1.6938,-1.703,-1.7051,-1.7069,-1.711,-1.7146,-1.7181,-1.7205,-1.7205,-1.7229,-1.7214,-1.7268,-1.7219,-1.7293,-1.7248,-1.727,-1.7277,-1.728,-1.7286,-1.7232,-1.7322,-1.7467,-1.7483,-1.7291,-1.7289,-1.7287,0,-1.6999,-1.7064,-1.7128,-1.7142,-1.7168,-1.7198,-1.721,-1.7231,-1.7256,-1.7286,-1.7302,-1.7339,-1.7359,-1.7388,-1.7383,-1.7348,-1.746,-1.741,-1.7463,-1.7463,-1.7489,-1.7488,-1.7642,-1.75,-1.75,-1.75,-1.7499,0,-1.7115,-1.7173,-1.717,-1.7209,-1.7274,-1.7263,-1.7327,-1.7335,-1.7355,-1.7396,-1.7373,-1.7412,-1.7402,-1.7441,-1.7438,-1.7501,-1.751,-1.7512,-1.7511,-1.7516,-1.7516,-1.7531,-1.7524,-1.7504,-1.7503,-1.7502,-1.7501,0,-1.723,-1.7229,-1.7297,-1.7316,-1.7322,-1.7369,-1.7385,-1.7423,-1.7425,-1.7478,-1.7489,-1.7493,-1.7538,-1.7536,-1.7586,-1.7583,-1.7662,-1.7651,-1.7654,-1.7653,-1.7706,-1.7702,-1.7877,-1.79,-1.7742,-1.7743,-1.7745,0,-1.7305,-1.7349,-1.7373,-1.7399,-1.7413,-1.7455,-1.748,-1.7472,-1.7499,-1.753,-1.7564,-1.7606,-1.764,-1.7713,-1.7721,-1.7759,-1.7751,-1.7809,-1.7756,-1.776,-1.7754,-1.7752,-1.7757,-1.782,-1.7822,-1.7823,-1.7824,0,-1.7439,-1.7437,-1.7474,-1.7512,-1.7542,-1.7571,-1.7598,-1.762,-1.7615,-1.7646,-1.7692,-1.7718,-1.777,-1.7813,-1.7851,-1.7863,-1.7844,-1.7841,-1.7856,-1.7861,-1.7862,-1.7864,-1.7685,-1.7837,-1.7836,-1.7835,-1.7834,-1.7834,-1.7537,-1.7576,-1.7599,-1.7642,-1.7661,-1.7686,-1.7723,-1.7731,-1.7769,-1.7811,-1.7803,-1.7855,-1.7878,-1.7926,-1.7942,-1.7983,-1.7962,-1.7982,-1.7988,-1.7994,-1.8001,-1.7854,-1.7989,-1.7989,-1.7988,-1.7988,-1.7988,0,-1.7672,-1.7686,-1.7725,-1.7763,-1.7797,-1.7775,-1.7804,-1.7834,-1.788,-1.7903,-1.7937,-1.799,-1.8032,-1.8043,-1.8084,-1.8114,-1.8106,-1.8125,-1.8124,-1.8127,-1.8016,-1.8,-1.8131,-1.8131,-1.8131,-1.8131,-1.8131,-1.8131,-1.7746,-1.7811,-1.7812,-1.7886,-1.7899,-1.795,-1.7969,-1.7992,-1.8011,-1.8072,-1.8107,-1.8114,-1.8133,-1.8174,-1.8212,-1.8214,-1.8231,-1.8254,-1.8253,-1.8149,-1.8135,-1.8121,-1.8106,-1.8257,-1.8257,-1.8361,-1.8362,-1.8362]},{"header":{"parameterUnit":"m.s-1","parameterCategory":1,"la1":30.2991,"la2":30.254,"lo1":-89.0895,"lo2":-89.0444,"dy":0.0017,"dx":0.0017,"nx":28,"ny":28,"refTime":"2025-11-05T03:00:00:Z","depth":0,"parameterNumber":3,"parameterNumberName":"V-component_of_WINDS"},"data":[0,0,0,0,0,0,0,0,0,0,0,0,0,0,0,0,0,0,0,0,0,0,0,0,0,0,0,0,0,0,0,0,0,0,0,0,0,0,0,0,0,0,0,0,0,0,0,0,0,0,0,0,0,0,0,0,0,0,-0.9945,-0.9945,0,-0.9983,-0.9984,-0.9984,-1.0038,-1.0039,-1.004,-1.0041,-1.0079,-1.008,-1.008,0,0,0,0,0,0,0,0,0,0,0,0,0,-0.9916,-0.9916,-0.9945,-0.9945,-0.9946,-0.9983,-0.9984,-0.9984,-1.0038,-1.0039,-1.004,-1.0042,-1.0079,-1.008,-1.008,0,0,0,0,0,0,0,0,0,0,0,0,0,-0.9939,-0.9917,-0.9945,-0.9977,-0.998,-0.9983,-0.9984,-0.9985,-1.0038,-1.0039,-1.0041,-1.0042,-1.0079,-1.008,-1.008,-1.0054,0,0,-1.0081,-1.0081,0,0,0,0,0,0,0,0,-0.9938,-0.994,-0.9972,-0.9975,-0.9979,-1.0008,-0.9988,-1.0008,-1.0038,-1.0016,-1.0041,-1.0043,-1.0054,-1.0057,-1.0061,-1.0055,-1.0057,-1.0081,-1.0081,-1.0081,-1.0081,0,0,0,0,0,0,0,-0.9936,-0.9939,-0.996,-0.9972,-0.9976,-0.9989,-0.9994,-0.9992,-1.0027,-1.0018,-1.0022,-1.0026,-1.0056,-1.006,-1.0062,-1.0058,-1.0081,-1.0081,-1.0081,-1.0081,-1.0031,-1.003,0,0,0,0,0,0,-0.993,-0.9937,-0.9959,-0.9961,-0.9961,-0.9989,-0.9994,-0.9997,-1.0027,-1.0033,-1.0025,-1.0028,-1.0059,-1.0062,-1.0064,-1.0033,-1.0081,-1.0081,-1.0081,-1.0032,-1.0031,-1.0029,0,0,0,0,0,0,-0.9929,-0.9931,-0.9957,-0.995,-0.9954,-0.9988,-0.999,-0.9997,-1.0001,-1.0032,-1.0039,-1.0022,-1.0061,-1.0063,-1.0055,-1.0035,-1.0081,-1.0081,-1.0034,-1.0032,-1.003,-0.9973,0,0,0,0,0,0,-0.9928,-0.9931,-0.9921,-0.995,-0.9955,-0.9948,-0.9989,-0.9997,-1.0001,-1.0006,-1.0032,-1.0037,-1.0062,-1.0055,-1.0056,-1.0037,-1.0082,-1.0036,-1.0033,-1.0031,-0.9977,-0.9969,-0.9962,0,0,0,0,0,-0.9927,-0.9903,-0.992,-0.9923,-0.9944,-0.9947,-0.995,-0.9979,-1.0,-0.999,-1.001,-1.0036,-1.0038,-1.0053,-1.0055,-1.0036,-1.0037,-1.0034,-1.0031,-0.998,-0.997,-0.9963,0,0,0,0,0,0,-0.9871,-0.9908,-0.9927,-0.9912,-0.9926,-0.9956,-0.9945,-0.9968,-0.9976,-0.9981,-1.0017,-1.0022,-1.0009,-1.0022,-1.0039,-1.0011,-1.0042,-1.0039,-1.0002,-0.9994,-0.9987,-0.9983,-1.0082,0,0,0,0,0,-0.9858,-0.9858,-0.989,-0.9874,-0.988,-0.9911,-0.9914,-0.9935,-0.9951,-0.9957,-0.9976,-0.999,-0.9994,-0.9995,-1.0,-0.998,-0.9985,-0.9967,-0.996,-0.9954,-0.995,-0.9939,-0.993,-1.0018,-1.0018,-1.0018,0,0,-0.9829,-0.9849,-0.9846,-0.9863,-0.9876,-0.9875,-0.9915,-0.9913,-0.9911,-0.9956,-0.9949,-0.9964,-0.9982,-0.9967,-0.9962,-0.9978,-0.9928,-0.995,-0.9945,-0.9944,-0.9934,-0.9926,-0.9919,-1.0016,-1.0016,-1.0017,0,0,-0.9775,-0.9791,-0.9778,-0.9791,-0.9811,-0.9832,-0.9829,-0.9855,-0.9867,-0.9861,-0.9894,-0.9894,-0.99,-0.991,-0.9916,-0.9867,-0.9891,-0.9868,-0.983,-0.9818,-0.9811,-0.9805,-0.9785,-0.9778,-0.9865,-0.9865,-0.9864,0,-0.9736,-0.9735,-0.9769,-0.9763,-0.9769,-0.9811,-0.9797,-0.9808,-0.9828,-0.9831,-0.9849,-0.9857,-0.9872,-0.9859,-0.9847,-0.9852,-0.9848,-0.9864,-0.981,-0.9804,-0.9799,-0.978,-0.9773,-0.9861,-0.9862,-0.9862,-0.9862,0,-0.9685,-0.9685,-0.9672,-0.9691,-0.9695,-0.9686,-0.9718,-0.9719,-0.974,-0.9759,-0.9752,-0.9772,-0.9781,-0.978,-0.9801,-0.977,-0.9779,-0.9803,-0.9834,-0.9787,-0.977,-0.9763,-0.9857,-0.9858,-0.9859,-0.986,0,0,-0.9595,-0.9633,-0.9627,-0.9636,-0.9661,-0.9661,-0.9654,-0.9663,-0.9662,-0.9675,-0.9669,-0.9673,-0.9695,-0.9702,-0.9725,-0.9715,-0.9672,-0.974,-0.9741,-0.9725,-0.9637,-0.9616,-0.9608,-0.969,-0.9689,-0.9688,-0.9635,0,-0.9544,-0.9533,-0.9563,-0.9545,-0.9543,-0.9583,-0.9577,-0.9591,-0.9609,-0.9611,-0.9631,-0.9632,-0.9663,-0.9667,-0.9659,-0.9679,-0.9655,-0.9684,-0.9682,-0.9682,-0.9673,-0.9599,-0.9578,-0.9526,-0.9628,-0.9627,-0.9627,0,-0.9482,-0.9491,-0.9472,-0.9498,-0.9499,-0.9492,-0.9503,-0.9504,-0.9521,-0.9535,-0.9543,-0.957,-0.9564,-0.9596,-0.9587,-0.9606,-0.9608,-0.9618,-0.9617,-0.9615,-0.9649,-0.9593,-0.9511,-0.9502,-0.9617,-0.9618,-0.9618,0,-0.9414,-0.9423,-0.9412,-0.9418,-0.9449,-0.9443,-0.9455,-0.9474,-0.9478,-0.9487,-0.949,-0.9499,-0.9502,-0.9509,-0.9537,-0.9558,-0.9524,-0.9559,-0.9533,-0.9532,-0.9522,-0.9521,-0.9436,-0.9528,-0.9528,-0.9528,-0.9528,0,-0.9351,-0.9337,-0.9382,-0.9375,-0.936,-0.9396,-0.938,-0.9397,-0.9413,-0.941,-0.9446,-0.9442,-0.9481,-0.9481,-0.9504,-0.9492,-0.9494,-0.9504,-0.9509,-0.9498,-0.9497,-0.9497,-0.95,-0.9526,-0.9527,-0.9527,-0.9527,0,-0.9272,-0.9301,-0.9292,-0.9322,-0.9329,-0.9317,-0.9342,-0.9337,-0.9358,-0.9353,-0.9354,-0.9386,-0.9388,-0.9418,-0.9426,-0.9441,-0.9419,-0.9433,-0.9413,-0.9416,-0.9388,-0.9389,-0.9297,-0.9286,-0.9388,-0.9387,-0.9386,0,-0.9228,-0.9218,-0.9247,-0.9248,-0.9258,-0.9259,-0.9262,-0.9298,-0.93,-0.9319,-0.9311,-0.9316,-0.9321,-0.9322,-0.9346,-0.9352,-0.9365,-0.9333,-0.9366,-0.9355,-0.9361,-0.9359,-0.9358,-0.9324,-0.9323,-0.9322,-0.9321,0,-0.9146,-0.9162,-0.9166,-0.9175,-0.9178,-0.9187,-0.9198,-0.9196,-0.9235,-0.9236,-0.9238,-0.9243,-0.9251,-0.9255,-0.9266,-0.9278,-0.9305,-0.9311,-0.9305,-0.9292,-0.9279,-0.9283,-0.939,-0.9312,-0.9313,-0.9313,-0.9314,-0.9314,-0.9081,-0.9074,-0.9093,-0.9096,-0.9108,-0.9118,-0.9114,-0.9135,-0.9137,-0.9147,-0.9168,-0.9167,-0.9184,-0.9202,-0.9212,-0.9211,-0.9227,-0.9219,-0.9216,-0.9213,-0.9206,-0.9282,-0.9213,-0.9214,-0.9214,-0.9214,-0.9215,0,-0.8999,-0.9014,-0.9016,-0.9031,-0.9033,-0.906,-0.9074,-0.9073,-0.9072,-0.9086,-0.9091,-0.9093,-0.9097,-0.9122,-0.9129,-0.9123,-0.9135,-0.9123,-0.9122,-0.9124,-0.9193,-0.9196,-0.9113,-0.9113,-0.9113,-0.9113,-0.9113,-0.9113,-0.8956,-0.8944,-0.8962,-0.8956,-0.8971,-0.897,-0.8975,-0.8984,-0.8995,-0.8996,-0.9,-0.9016,-0.9035,-0.9043,-0.9047,-0.9055,-0.9054,-0.9037,-0.9048,-0.911,-0.912,-0.9129,-0.9132,-0.9037,-0.9037,-0.8979,-0.8979,-0.8978]}]]